Wind_Speed
26 24 23 23 22 21 20 19 19 18 17 17 18 18 19 20 20 21 22 24 25 26 27 28 29 31 32 33 34 35 35 36 37 38 39 39 39 40 40 40 40 40 40
27 26 25 24 23 22 21 21 20 19 19 18 19 20 20 21 22 23 24 25 26 27 28 29 31 32 33 34 35 36 36 37 38 39 39 40 40 41 41 41 41 40 40
29 28 26 25 24 24 23 22 21 20 20 20 20 21 21 22 23 24 25 26 27 29 30 31 32 33 34 35 36 37 37 38 38 39 40 40 41 41 42 42 41 41 40
30 29 28 27 26 25 24 24 23 22 22 21 21 22 22 23 24 25 26 28 29 30 31 32 33 34 35 36 37 38 38 39 39 40 40 41 42 42 43 42 42 41 41
32 30 29 28 27 26 26 25 24 23 23 23 22 22 23 24 25 26 28 29 30 31 32 33 35 35 36 37 38 39 39 40 40 41 41 42 43 43 43 43 43 42 42
33 32 30 29 29 28 27 26 25 25 24 24 24 24 24 25 27 28 29 30 31 32 33 34 36 36 37 38 39 40 40 41 41 42 42 43 43 44 44 44 43 43 43
34 33 32 31 30 29 28 27 27 26 26 25 25 25 26 27 28 29 30 31 33 34 35 36 36 37 38 39 40 40 41 42 42 43 43 44 44 44 45 45 45 44 44
34 34 33 32 31 30 30 29 28 28 27 27 26 27 28 28 29 31 32 33 34 35 36 37 37 38 39 40 41 41 42 43 43 44 45 45 45 45 46 46 46 45 46
35 34 33 33 32 31 31 30 30 29 28 28 28 28 29 30 31 32 33 34 35 36 37 37 38 39 40 41 41 42 43 44 44 45 45 46 46 46 47 47 47 47 48
36 35 34 33 33 32 32 31 31 30 30 30 30 30 31 31 32 33 34 35 36 37 37 38 39 40 41 41 42 43 44 45 45 46 46 47 47 48 48 48 48 49 49
36 35 35 35 34 33 33 32 32 31 31 31 31 31 32 33 34 34 35 36 37 38 38 39 40 41 42 42 43 44 45 46 46 47 47 48 49 49 49 49 50 50 50
36 36 36 35 35 34 34 33 33 33 32 32 32 33 33 34 35 36 36 37 37 39 39 40 41 42 42 43 44 44 45 46 47 48 49 49 50 50 50 51 51 51 52
36 36 36 36 35 35 34 34 34 33 33 33 33 34 35 36 36 37 37 38 38 39 40 41 42 42 43 43 44 45 46 47 48 49 50 50 51 51 52 52 52 53 54
37 37 37 37 36 36 35 34 34 34 34 34 35 35 36 37 38 38 38 39 39 39 40 41 42 43 43 44 45 46 46 47 49 50 50 51 52 53 53 53 53 54 56
39 39 38 38 37 37 36 36 35 35 35 35 36 37 37 38 39 39 40 40 40 40 40 41 42 43 44 45 45 46 47 48 50 50 52 53 53 54 54 54 55 56 58
40 39 39 39 38 38 37 37 36 36 36 36 37 37 38 39 40 40 40 41 41 41 40 42 43 43 44 45 46 46 48 49 50 51 52 53 54 54 55 55 57 58 60
40 40 40 39 39 39 38 38 37 37 37 37 38 38 38 39 40 40 41 41 41 42 42 42 43 44 45 45 46 47 48 49 51 52 53 53 54 55 56 57 59 60 61
41 40 40 40 39 39 39 38 38 38 38 38 38 39 39 39 39 40 41 41 42 43 43 42 43 44 45 46 46 47 48 50 52 52 53 53 54 55 57 58 60 61 61
41 41 41 40 40 40 39 39 39 39 39 39 38 38 39 39 40 41 42 42 42 43 43 43 43 44 45 46 46 47 49 51 52 52 53 54 55 56 58 59 60 60 61
42 42 42 41 41 40 40 40 40 39 39 38 38 38 39 40 41 41 42 42 43 43 43 43 44 44 45 46 47 48 49 51 51 52 53 54 56 57 59 60 60 60 60
42 42 42 42 42 41 41 40 40 40 39 39 39 39 39 40 41 41 41 42 42 42 43 44 44 45 45 47 48 49 50 50 51 53 54 55 57 58 59 59 60 60 60
42 42 42 42 41 41 41 41 41 41 40 39 39 38 39 39 40 41 41 42 42 42 43 44 44 45 46 47 48 49 50 50 52 53 54 56 58 58 59 59 59 60 60
43 42 42 42 42 42 41 42 41 40 40 39 39 39 39 40 40 40 41 42 42 42 43 44 44 45 46 47 48 49 50 51 53 54 56 57 57 58 58 59 60 60 60
43 43 43 43 42 42 41 40 40 39 39 38 38 38 39 39 39 40 40 41 41 42 43 44 45 46 47 47 48 49 50 52 54 56 57 56 56 57 58 59 59 59 58
43 42 42 41 39 38 38 38 39 39 38 38 38 38 38 39 39 40 40 41 41 42 43 44 45 46 46 47 48 49 51 53 54 55 56 55 55 56 58 59 59 58 57
43 42 41 40 38 36 36 37 37 37 37 37 38 38 38 39 39 40 40 41 41 42 43 43 44 45 46 47 49 50 52 54 55 54 54 56 56 57 57 57 57 56 57
Wind_Direction
237 239 241 243 244 246 249 252 257 263 267 273 280 288 293 298 302 306 310 314 317 318 320 320 321 321 322 322 322 322 322 322 321 321 321 320 320 320 319 318 316 314 313
238 240 241 243 245 247 249 252 257 262 267 273 280 286 292 296 300 305 309 312 314 316 318 319 320 320 321 321 322 322 321 321 321 321 320 320 319 319 319 318 316 314 313
238 240 241 243 245 247 250 252 257 262 267 273 279 285 291 295 299 303 307 310 312 315 316 317 318 319 319 320 320 320 320 320 319 320 320 319 319 319 318 317 316 315 313
238 239 240 243 245 246 249 252 257 262 267 272 278 284 290 295 299 303 306 309 310 312 314 315 317 317 318 319 319 319 319 319 319 319 318 318 318 318 318 317 316 315 313
237 238 240 242 244 246 248 252 257 262 266 272 277 283 289 294 299 302 305 308 309 310 312 314 315 316 316 317 317 318 318 318 318 318 318 318 317 317 317 317 315 314 312
237 238 240 242 243 246 249 252 256 261 266 271 276 282 288 293 297 301 304 307 308 309 311 312 313 314 315 316 316 316 317 317 317 317 317 317 317 317 317 316 314 313 312
237 239 241 242 244 247 249 253 256 260 265 270 276 282 287 291 295 299 303 305 307 308 309 311 312 313 313 314 314 315 315 315 315 316 316 316 316 316 316 315 314 313 312
237 239 240 241 244 247 250 253 257 260 265 270 276 282 287 291 295 298 301 304 306 307 308 310 310 311 312 312 312 313 314 314 315 315 315 315 315 315 315 314 313 313 312
236 238 240 241 244 247 250 253 256 260 265 270 275 281 287 291 294 297 300 302 304 305 307 308 309 310 310 310 311 312 313 313 313 314 314 314 314 314 313 313 313 312 312
236 238 239 241 244 247 250 253 257 261 265 270 275 281 286 290 293 296 298 300 302 303 305 306 308 308 308 309 310 311 311 312 313 313 313 313 313 313 313 313 312 312 311
236 238 239 242 245 247 251 255 258 261 266 270 275 281 285 289 292 294 296 299 301 302 304 305 306 307 307 308 309 310 310 311 312 312 312 312 312 312 312 312 312 312 311
237 238 240 242 245 249 252 255 258 262 266 271 276 281 284 288 290 293 296 298 299 301 302 304 305 306 306 307 308 309 309 310 310 311 312 312 312 312 312 312 312 312 311
237 239 241 243 246 250 252 255 259 262 267 272 276 280 284 286 290 292 294 296 298 300 301 303 304 304 305 306 307 308 309 309 310 310 311 311 311 312 312 312 311 311 312
237 239 241 244 247 250 253 256 260 263 267 272 276 280 283 286 289 291 293 295 297 299 300 302 303 303 304 306 306 307 308 309 310 310 311 311 311 311 312 311 311 311 312
238 240 242 244 247 250 254 257 260 264 268 272 276 280 283 285 288 290 291 294 297 298 299 301 301 302 303 305 305 306 307 308 309 310 311 311 310 310 311 311 311 312 312
239 241 243 245 248 251 254 257 261 265 269 273 276 280 282 285 287 288 291 294 296 297 299 300 301 302 303 304 305 306 307 308 309 310 311 310 310 311 311 311 311 312 312
240 241 244 246 249 252 255 258 261 266 269 272 276 280 282 284 286 289 292 294 295 297 298 299 300 301 303 303 304 306 307 308 309 310 310 310 310 311 311 311 312 312 313
241 243 245 248 250 253 256 259 263 266 269 273 276 279 281 283 286 288 291 293 294 296 298 299 300 301 303 304 305 305 306 308 309 309 309 310 310 311 311 312 312 313 314
242 244 246 248 251 253 256 260 263 266 269 273 275 277 280 283 286 288 290 291 293 296 297 299 300 302 303 304 305 306 307 308 309 310 310 311 311 312 312 313 314 315 315
242 244 246 248 251 253 257 260 263 266 269 271 274 276 279 282 285 286 288 290 292 295 297 298 300 301 302 303 304 306 308 309 310 311 311 311 312 313 313 314 315 315 315
242 244 246 248 250 253 257 260 263 266 269 271 273 276 279 281 283 285 287 289 292 294 296 298 300 301 302 303 304 306 308 309 310 311 311 312 313 313 314 315 315 316 316
241 243 245 247 250 253 256 260 263 266 268 271 273 275 278 280 282 284 287 290 292 294 296 298 300 301 302 304 305 307 308 309 310 310 311 312 313 314 315 315 316 316 316
241 243 245 247 249 252 256 259 262 265 268 270 273 274 277 279 282 284 287 289 292 294 296 298 300 301 303 304 306 308 309 309 310 311 312 312 313 314 315 316 316 316 316
240 243 245 246 249 252 255 258 261 264 267 269 272 274 277 280 282 284 287 289 292 294 297 298 300 301 303 305 307 308 309 310 311 312 313 313 314 314 315 316 317 317 317
239 243 245 247 251 253 255 258 261 263 266 269 271 274 277 279 282 285 287 290 292 294 296 298 300 302 304 305 307 309 310 311 312 313 313 313 314 315 316 317 317 318 318
239 242 246 248 251 253 255 257 260 262 265 268 271 273 276 280 282 284 287 289 292 294 296 298 300 302 304 306 308 309 311 312 313 313 313 314 315 315 316 317 317 318 318
Height
5843 5845 5846 5848 5849 5850 5851 5852 5852 5853 5853 5852 5852 5851 5850 5848 5847 5845 5843 5840 5838 5835 5832 5829 5825 5822 5818 5814 5810 5805 5801 5797 5792 5787 5782 5777 5772 5767 5762 5757 5752 5746 5742
5838 5840 5842 5843 5845 5846 5847 5848 5848 5849 5849 5848 5848 5847 5846 5844 5843 5841 5839 5836 5834 5831 5827 5824 5820 5817 5813 5809 5804 5800 5796 5791 5786 5781 5776 5771 5766 5761 5755 5750 5745 5740 5735
5832 5835 5837 5839 5840 5841 5842 5843 5844 5844 5844 5844 5843 5842 5841 5840 5838 5836 5834 5832 5829 5826 5822 5819 5815 5811 5807 5803 5799 5794 5790 5785 5780 5775 5770 5765 5760 5754 5749 5743 5738 5733 5728
5827 5829 5831 5833 5835 5836 5837 5838 5839 5840 5840 5839 5839 5838 5836 5835 5833 5831 5829 5827 5824 5820 5817 5813 5810 5806 5801 5797 5793 5788 5784 5779 5774 5769 5763 5758 5753 5748 5742 5737 5731 5726 5721
5821 5823 5825 5827 5829 5831 5832 5833 5834 5835 5835 5835 5834 5833 5832 5830 5828 5826 5824 5821 5818 5815 5811 5808 5804 5800 5795 5791 5787 5782 5777 5772 5767 5762 5757 5751 5746 5741 5735 5730 5724 5719 5714
5815 5817 5820 5822 5824 5826 5827 5828 5829 5829 5830 5830 5829 5828 5827 5825 5823 5821 5818 5815 5812 5809 5805 5802 5798 5793 5789 5785 5780 5775 5770 5765 5760 5755 5750 5744 5739 5733 5728 5722 5717 5711 5706
5808 5811 5814 5816 5818 5820 5821 5823 5823 5824 5824 5824 5824 5822 5821 5820 5818 5815 5813 5810 5807 5803 5799 5795 5791 5787 5783 5778 5773 5769 5764 5759 5753 5748 5743 5737 5731 5726 5720 5715 5709 5703 5698
5802 5805 5807 5810 5812 5814 5816 5817 5817 5818 5818 5818 5818 5817 5815 5814 5812 5809 5807 5804 5800 5797 5793 5789 5785 5780 5776 5771 5766 5761 5756 5751 5746 5741 5735 5729 5724 5718 5712 5706 5700 5695 5689
5795 5798 5801 5803 5806 5808 5809 5810 5811 5812 5812 5812 5812 5811 5809 5808 5806 5803 5800 5797 5794 5790 5786 5782 5778 5773 5769 5764 5759 5754 5749 5744 5738 5733 5727 5721 5716 5710 5704 5698 5692 5686 5680
5788 5791 5794 5797 5799 5801 5803 5804 5805 5805 5806 5805 5805 5804 5803 5801 5799 5797 5794 5791 5787 5783 5779 5775 5771 5766 5761 5756 5752 5747 5741 5736 5730 5725 5719 5713 5707 5701 5695 5689 5682 5676 5670
5781 5784 5787 5790 5792 5794 5796 5797 5798 5799 5799 5799 5798 5797 5796 5794 5792 5790 5787 5784 5780 5776 5772 5768 5763 5759 5754 5749 5744 5739 5733 5728 5722 5716 5710 5704 5698 5692 5685 5679 5673 5667 5660
5774 5777 5780 5783 5785 5787 5789 5790 5791 5792 5792 5792 5791 5790 5789 5787 5785 5783 5780 5776 5773 5769 5765 5760 5756 5751 5746 5741 5736 5731 5725 5719 5714 5708 5702 5695 5689 5683 5676 5669 5663 5656 5649
5767 5770 5773 5776 5778 5780 5781 5783 5784 5784 5784 5784 5783 5783 5781 5779 5777 5775 5772 5769 5766 5761 5757 5752 5748 5743 5738 5733 5728 5722 5717 5711 5705 5699 5693 5686 5680 5673 5666 5659 5652 5645 5638
5759 5762 5765 5768 5770 5772 5774 5775 5776 5777 5777 5777 5776 5775 5773 5771 5769 5767 5764 5761 5758 5754 5750 5745 5740 5735 5730 5725 5720 5714 5708 5702 5696 5690 5683 5677 5670 5663 5656 5649 5641 5634 5627
5751 5754 5757 5759 5762 5764 5766 5767 5768 5769 5769 5768 5768 5766 5765 5763 5761 5759 5756 5753 5750 5746 5742 5737 5732 5727 5722 5716 5711 5705 5699 5693 5687 5680 5673 5666 5659 5652 5645 5638 5630 5623 5615
5742 5745 5748 5751 5753 5756 5757 5759 5760 5761 5761 5760 5759 5758 5757 5755 5752 5750 5747 5744 5741 5737 5734 5729 5724 5718 5713 5708 5702 5696 5690 5684 5677 5670 5663 5656 5649 5641 5634 5627 5619 5611 5603
5733 5737 5740 5742 5745 5747 5749 5750 5752 5752 5752 5752 5751 5749 5748 5746 5744 5741 5739 5735 5732 5728 5725 5720 5715 5710 5705 5699 5693 5687 5681 5675 5668 5661 5653 5646 5638 5631 5623 5615 5607 5599 5590
5724 5728 5731 5733 5736 5738 5740 5742 5743 5743 5743 5743 5742 5741 5739 5737 5735 5733 5730 5727 5723 5719 5715 5712 5707 5701 5696 5690 5684 5678 5672 5665 5658 5651 5643 5635 5628 5620 5612 5604 5595 5586 5577
5715 5719 5722 5725 5727 5729 5731 5733 5734 5734 5734 5734 5733 5732 5730 5729 5727 5724 5721 5718 5714 5710 5706 5702 5698 5692 5687 5681 5675 5669 5662 5655 5648 5640 5633 5625 5617 5609 5601 5592 5583 5574 5564
5706 5709 5713 5716 5718 5720 5722 5723 5724 5725 5725 5725 5724 5723 5722 5720 5718 5715 5712 5708 5705 5701 5697 5693 5688 5683 5677 5671 5666 5659 5653 5645 5638 5630 5622 5614 5606 5598 5589 5580 5571 5562 5552
5696 5700 5703 5706 5709 5711 5713 5714 5715 5715 5715 5715 5715 5714 5712 5710 5708 5705 5703 5699 5695 5692 5688 5683 5679 5674 5668 5662 5656 5650 5643 5636 5628 5620 5612 5604 5595 5587 5578 5568 5559 5549 5540
5686 5690 5693 5696 5699 5702 5703 5704 5705 5705 5706 5706 5705 5704 5703 5701 5699 5696 5693 5690 5686 5683 5678 5674 5669 5664 5659 5652 5646 5640 5633 5627 5620 5612 5603 5594 5584 5575 5566 5557 5548 5538 5528
5676 5680 5683 5687 5689 5692 5693 5694 5695 5696 5696 5696 5696 5695 5693 5691 5689 5687 5684 5681 5677 5673 5669 5665 5660 5655 5649 5643 5637 5630 5623 5616 5609 5601 5592 5583 5573 5564 5555 5545 5536 5526 5516
5666 5670 5673 5676 5679 5681 5683 5684 5685 5686 5686 5686 5686 5685 5684 5682 5680 5677 5675 5671 5668 5664 5660 5655 5650 5645 5639 5633 5627 5620 5613 5606 5598 5589 5580 5573 5563 5553 5544 5534 5525 5515 5505
5656 5660 5663 5666 5669 5671 5673 5674 5675 5676 5677 5677 5676 5675 5674 5673 5671 5668 5665 5662 5659 5655 5650 5646 5641 5635 5629 5623 5617 5610 5603 5595 5588 5579 5569 5561 5553 5544 5534 5524 5514 5504 5494
5646 5650 5653 5656 5659 5661 5663 5665 5666 5666 5667 5667 5667 5666 5665 5663 5661 5658 5656 5653 5649 5645 5641 5636 5631 5626 5620 5613 5607 5600 5593 5585 5577 5569 5560 5551 5542 5533 5524 5514 5503 5493 5483